Regional Weather Roundup
Issued by NWS

Home | Current Version | Previous Version | Text Only | Print | Product List | Glossary On
Versions: 1 2 3 4 5 6 7 8 9 10 11 12 13 14 15 16 17 18 19 20 21 22 23 24 25 26 27 28 29 30 31 32 33 34 35 36 37 38 39 40 41 42 43 44 45 46 47 48 49 50
000
ASUS43 KTOP 280459
RWRKS

WEATHER ROUNDUP FOR KANSAS
NATIONAL WEATHER SERVICE GOODLAND KS
1200 AM CDT TUE JUL 28 2015

NOTE:  "FAIR" INDICATES FEW OR NO CLOUDS BELOW 12,000 FEET WITH NO
SIGNIFICANT WEATHER AND/OR OBSTRUCTIONS TO VISIBILITY.

KSZ001>006-013>018-027>032-041>047-280600-
NORTHWEST KANSAS

CITY           SKY/WX    TMP DP  RH WIND       PRES   REMARKS
GOODLAND       PTCLDY    79  65  62 S16       29.81S
HAYS           PTCLDY    82  66  57 S18G28    29.82R
HILL CITY      CLEAR     83  69  62 S13       29.79R
RUSSELL        PTCLDY    82  70  66 S20G28    29.80S
$$

KSZ061>065-074>080-084>089-280600-
SOUTHWEST KANSAS

CITY           SKY/WX    TMP DP  RH WIND       PRES   REMARKS
DODGE CITY     CLEAR     82  66  58 S22G29    29.87R
ELKHART          N/A     81  61  50 S15         N/A
GARDEN CITY    CLEAR     81  67  62 S17       29.85R
GREAT BEND     PTCLDY    84  70  61 S24       29.83S
LIBERAL        CLEAR     82  63  51 S15       29.88S
$$

KSZ066>073-081>083-090>101-280600-
SOUTHEAST KANSAS

CITY           SKY/WX    TMP DP  RH WIND       PRES   REMARKS
CHANUTE        CLEAR     82  75  79 S8        29.91S
COFFEYVILLE    CLEAR     81  77  88 S5        29.90F
HUTCHINSON     CLEAR     85  67  54 S15       29.87R
NEWTON         CLEAR     82  68  61 S12G17    29.91S
PARSONS        CLEAR     83  76  79 S5        29.92S
WICHITA INTL   PTCLDY    84  67  56 S16       29.88R
WICHITA JABRA  CLEAR     82  73  74 S12       29.89R
WINFIELD       CLEAR     81  74  79 S12       29.90S
$$

KSZ007>012-019>026-033>040-048>060-102>105-280600-
NORTHEAST KANSAS

CITY           SKY/WX    TMP DP  RH WIND       PRES   REMARKS
CONCORDIA      CLEAR     81  68  64 S15       29.83S
EMPORIA        CLEAR     81  73  76 S14       29.88F
LAWRENCE       CLEAR     77  73  87 SE6       29.89S
MANHATTAN      CLEAR     82  72  71 S6        29.85S
OLATHE IND     CLEAR     81  74  79 S7        29.91F
OLATHE EXE     CLEAR     80  74  81 S6        29.90F
SALINA         CLEAR     84  69  60 S15       29.83S
TOPEKA BILLARD CLEAR     84  73  69 S10       29.87F
TOPEKA FORBES  CLEAR     83  72  69 S8        29.88F
$$



USA.gov is the U.S. government's official web portal to all federal, state and local government web resources and services.